Gulkana, AK

1:15 AM AKDT on June 24, 2017 (GMT -0800)
Gulkana

Weather History for PAGK - March, 2013

Change the Weather History Date:

Sunday, March 3, 2013

  Actual Average Record
Temperature  
Mean Temperature 6 °F -  
Max Temperature 21 °F 20 °F 45 °F (1990)
Min Temperature -8 °F -3 °F -39 °F (1956)
Degree Days  
Heating Degree Days 58    
Moisture  
Dew Point 0 °F    
Average Humidity 80    
Maximum Humidity 92    
Minimum Humidity 49    
Precipitation  
Precipitation 0.00 in - - ()
Snow  
Snow 0.00 in - - ()
Snow Depth 11.00 in    
Sea Level Pressure  
Sea Level Pressure 30.44 in    
Wind  
Wind Speed 3 mph (NW)    
Max Wind Speed 6 mph    
Max Gust Speed -    
Visibility 10 miles    
Events      
Averages and records for this station are not official NWS values.
T = Trace of Precipitation, MM = Missing Value Source: NWS Daily Summary

Daily Weather History Graph

Daily Weather History Graph

Search for Another Location

Airport or City:

Trip Planner

Search our weather history database for the weather conditions in past years. The results will help you decide how hot, cold, wet, or windy it might be!

Date:

Astronomy

Mar. 03, 2013 Rise Set
Actual Time 7:36 AM AKST 6:11 PM AKST
Civil Twilight 6:52 AM AKST 6:56 PM AKST
Nautical Twilight 6:00 AM AKST 7:48 PM AKST
Astronomical Twilight 5:07 AM AKST 8:41 PM AKST
Moon 2:00 AM AKST (3/3) 8:55 AM AKST (3/3)
Length of Visible Light 12h 04m
Length of Day
10h 35m
Waning Gibbous, 62% of the Moon is Illuminated
Mar 3
Waning Gibbous
Mar 4
Last Quarter
Mar 11
New
Mar 19
First Quarter
Mar 27
Full

Hourly Weather History & Observations

Time (AKST) Temp. Windchill Dew Point Humidity Pressure Visibility Wind Dir Wind Speed Gust Speed Precip Events Conditions
12:53 AM -5.1 °F - -9.0 °F 83% 30.27 in 10.0 mi Calm Calm - N/A   Clear
1:53 AM -7.1 °F -18.1 °F -11.0 °F 83% 30.29 in 10.0 mi NW 4.6 mph - N/A   Clear
3:53 AM -6.0 °F -16.9 °F -9.9 °F 83% 30.31 in 10.0 mi NW 4.6 mph - N/A   Clear
4:19 AM -7.1 °F -18.1 °F -11.0 °F 83% 30.17 in 10.0 mi NNW 4.6 mph - N/A   Mostly Cloudy
4:53 AM -2.9 °F -11.2 °F -7.1 °F 82% 30.33 in 10.0 mi NW 3.5 mph - N/A   Overcast
5:53 AM -5.1 °F -13.6 °F -8.0 °F 87% 30.36 in 10.0 mi West 3.5 mph - N/A   Mostly Cloudy
6:01 AM -5.1 °F -13.6 °F -9.0 °F 83% 30.20 in 10.0 mi WNW 3.5 mph - N/A   Scattered Clouds
6:53 AM -0.9 °F -11.0 °F -5.1 °F 83% 30.39 in 10.0 mi NW 4.6 mph - N/A   Mostly Cloudy
7:25 AM 1.0 °F -8.7 °F -2.9 °F 83% 30.23 in 10.0 mi WNW 4.6 mph - N/A   Overcast
7:53 AM 1.0 °F -8.7 °F -2.9 °F 83% 30.41 in 10.0 mi NW 4.6 mph - N/A   Overcast
8:53 AM 3.0 °F -4.4 °F -0.9 °F 84% 30.43 in 10.0 mi North 3.5 mph - N/A   Overcast
9:53 AM 3.0 °F -8.0 °F -0.0 °F 87% 30.47 in 10.0 mi North 5.8 mph - N/A   Overcast
10:40 AM 7.0 °F 0.1 °F 3.0 °F 84% 30.30 in 10.0 mi Variable 3.5 mph - N/A   Mostly Cloudy
10:53 AM 7.0 °F - 5.0 °F 92% 30.48 in 10.0 mi Calm Calm - N/A   Mostly Cloudy
11:53 AM 10.0 °F - 5.0 °F 80% 30.50 in 10.0 mi Calm Calm - N/A   Scattered Clouds
12:53 PM 16.0 °F - 8.1 °F 71% 30.50 in 10.0 mi Calm Calm - N/A   Scattered Clouds
1:53 PM 16.0 °F 10.4 °F 7.0 °F 68% 30.51 in 10.0 mi SE 3.5 mph - N/A   Scattered Clouds
2:53 PM 19.0 °F - 8.1 °F 62% 30.51 in 10.0 mi Calm Calm - N/A   Mostly Cloudy
3:53 PM 21.0 °F - 10.0 °F 63% 30.51 in 10.0 mi Calm Calm - N/A   Mostly Cloudy
4:53 PM 21.0 °F 16.2 °F 10.0 °F 63% 30.51 in 10.0 mi NNE 3.5 mph - N/A   Mostly Cloudy
5:53 PM 18.0 °F - 9.0 °F 68% 30.53 in 10.0 mi Calm Calm - N/A   Mostly Cloudy
6:53 PM 10.9 °F - 5.0 °F 77% 30.56 in 10.0 mi Calm Calm - N/A   Mostly Cloudy
7:53 PM 5.0 °F - 1.9 °F 87% 30.58 in 10.0 mi Calm Calm - N/A   Mostly Cloudy
8:53 PM 5.0 °F -4.1 °F 3.0 °F 92% 30.59 in 10.0 mi WNW 4.6 mph - N/A   Mostly Cloudy
9:26 PM 3.9 °F - 1.9 °F 91% 30.42 in 10.0 mi Calm Calm - N/A   Mostly Cloudy
9:53 PM -0.9 °F - -4.0 °F 87% 30.61 in 10.0 mi Calm Calm - N/A   Clear
10:53 PM -0.0 °F -7.9 °F -2.9 °F 88% 30.62 in 10.0 mi WNW 3.5 mph - N/A   Clear
11:53 PM -2.0 °F -10.1 °F -5.1 °F 87% 30.63 in 10.0 mi NW 3.5 mph - N/A   Clear